Terminal Aerodrome Forecast
Issued by NWS

Home | Current Version | Previous Version | Graphics & Text | Print | Product List | Glossary On
Versions: 1 2 3 4 5 6 7 8 9 10 11 12 13 14 15 16 17 18 19
000
FTUS43 KGRB 251138
TAFAUW
TAF
KAUW 251138Z 2512/2612 12009KT P6SM SCT015 OVC050
      TEMPO 2512/2515 6SM SHRA BKN015
     FM251500 16011G18KT 3SM SHRA BR BKN006 OVC012
      TEMPO 2515/2519 1 1/2SM TSRA BR BKN003 OVC015CB
     FM252000 19011G18KT 4SM BR VCSH SCT007 OVC015
     FM252300 25010G17KT P6SM SCT015 OVC035
      TEMPO 2604/2606 BKN015=

USA.gov is the U.S. government's official web portal to all federal, state and local government web resources and services.